MWI034 FWKI-FLKK

Flight info

Callsign MWI034
Flight time 0h 59m
Altitude 36000
Route UTOLA1A UTOLA DCT IBNOP IBNOP1A
Aircraft B737/M-SDE2E3FGHIRWXY/LB1

Departure

Time 2026-04-29 03:07
Airport Kamuzu International Airport (FWKI)

Arrival

Time 2026-04-29 04:06
Airport Kenneth Kaunda International Airport (FLKK)
Time Latitude Longitude Altitude Speed Heading
2026-04-29 02:39 -13.78136 33.77774 4032 ft 0 kts 115°
2026-04-29 02:56 -13.78135 33.77773 4032 ft 2 kts 115°
2026-04-29 02:56 -13.78121 33.77755 4032 ft 4 kts 173°
2026-04-29 02:56 -13.78098 33.77762 4032 ft 4 kts 214°
2026-04-29 02:57 -13.78088 33.77769 4032 ft 1 kts 214°
2026-04-29 02:59 -13.78089 33.77769 4032 ft 1 kts 214°
2026-04-29 02:59 -13.78098 33.77762 4032 ft 3 kts 214°
2026-04-29 03:00 -13.78119 33.77747 4032 ft 4 kts 215°
2026-04-29 03:00 -13.78147 33.77727 4032 ft 6 kts 215°
2026-04-29 03:00 -13.78181 33.77700 4032 ft 7 kts 219°
2026-04-29 03:00 -13.78220 33.77666 4032 ft 8 kts 219°
2026-04-29 03:01 -13.78265 33.77623 4031 ft 10 kts 234°
2026-04-29 03:01 -13.78256 33.77555 4031 ft 11 kts 308°
2026-04-29 03:01 -13.78209 33.77498 4032 ft 10 kts 309°
2026-04-29 03:01 -13.78164 33.77442 4032 ft 10 kts 310°
2026-04-29 03:02 -13.78120 33.77387 4031 ft 10 kts 309°
2026-04-29 03:02 -13.78077 33.77335 4032 ft 9 kts 312°
2026-04-29 03:02 -13.78036 33.77283 4032 ft 9 kts 307°
2026-04-29 03:02 -13.77995 33.77233 4032 ft 9 kts 311°
2026-04-29 03:03 -13.77955 33.77185 4032 ft 9 kts 310°
2026-04-29 03:03 -13.77916 33.77137 4032 ft 9 kts 310°
2026-04-29 03:03 -13.77877 33.77090 4033 ft 9 kts 310°
2026-04-29 03:03 -13.77839 33.77043 4033 ft 8 kts 308°
2026-04-29 03:04 -13.77816 33.76989 4033 ft 8 kts 276°
2026-04-29 03:04 -13.77830 33.76933 4033 ft 8 kts 238°
2026-04-29 03:04 -13.77852 33.76910 4033 ft 3 kts 223°
2026-04-29 03:04 -13.77857 33.76906 4034 ft 0 kts 221°
2026-04-29 03:05 -13.77863 33.76901 4034 ft 3 kts 215°
2026-04-29 03:05 -13.77894 33.76887 4034 ft 7 kts 201°
2026-04-29 03:05 -13.77946 33.76895 4033 ft 9 kts 131°
2026-04-29 03:06 -13.78006 33.76969 4032 ft 33 kts 130°
2026-04-29 03:06 -13.78325 33.77357 4031 ft 107 kts 130°
2026-04-29 03:06 -13.78944 33.78108 4053 ft 164 kts 131°
2026-04-29 03:06 -13.79724 33.79062 4556 ft 180 kts 131°
2026-04-29 03:07 -13.80593 33.80019 5297 ft 186 kts 143°
2026-04-29 03:07 -13.81782 33.80496 6056 ft 190 kts 179°
2026-04-29 03:07 -13.83024 33.80021 6599 ft 201 kts 225°
2026-04-29 03:07 -13.83691 33.78655 6666 ft 237 kts 265°
2026-04-29 03:08 -13.83409 33.76864 6700 ft 271 kts 285°
2026-04-29 03:08 -13.82934 33.74989 6692 ft 277 kts 283°
2026-04-29 03:08 -13.82495 33.73050 6681 ft 278 kts 282°
2026-04-29 03:08 -13.82089 33.71114 6676 ft 276 kts 281°
2026-04-29 03:09 -13.81706 33.69160 6952 ft 282 kts 281°
2026-04-29 03:09 -13.81336 33.67179 8020 ft 281 kts 280°
2026-04-29 03:09 -13.80979 33.65199 9089 ft 283 kts 280°
2026-04-29 03:09 -13.80626 33.63190 10066 ft 287 kts 279°
2026-04-29 03:10 -13.80267 33.61113 10694 ft 307 kts 279°
2026-04-29 03:10 -13.79884 33.58861 11169 ft 327 kts 279°
2026-04-29 03:10 -13.79494 33.56550 12019 ft 333 kts 279°
2026-04-29 03:10 -13.79096 33.54185 12962 ft 337 kts 279°
2026-04-29 03:11 -13.78694 33.51784 13887 ft 342 kts 279°
2026-04-29 03:11 -13.78288 33.49357 14806 ft 346 kts 279°
2026-04-29 03:11 -13.77877 33.46897 15722 ft 351 kts 279°
2026-04-29 03:11 -13.77459 33.44395 16623 ft 356 kts 279°
2026-04-29 03:12 -13.77038 33.41871 17485 ft 360 kts 279°
2026-04-29 03:12 -13.76614 33.39337 18317 ft 365 kts 279°
2026-04-29 03:12 -13.76180 33.36741 19138 ft 370 kts 279°
2026-04-29 03:12 -13.75741 33.34113 19938 ft 375 kts 279°
2026-04-29 03:13 -13.75295 33.31449 20720 ft 379 kts 279°
2026-04-29 03:13 -13.74844 33.28758 21473 ft 384 kts 279°
2026-04-29 03:13 -13.74388 33.26038 22192 ft 388 kts 279°
2026-04-29 03:13 -13.73926 33.23281 22893 ft 393 kts 279°
2026-04-29 03:14 -13.73464 33.20532 23570 ft 397 kts 279°
2026-04-29 03:14 -13.72992 33.17716 24234 ft 401 kts 279°
2026-04-29 03:14 -13.72514 33.14874 24871 ft 405 kts 279°
2026-04-29 03:14 -13.72030 33.12000 25484 ft 409 kts 279°
2026-04-29 03:15 -13.71543 33.09102 26074 ft 413 kts 279°
2026-04-29 03:15 -13.71050 33.06178 26639 ft 417 kts 279°
2026-04-29 03:15 -13.70553 33.03226 27191 ft 421 kts 279°
2026-04-29 03:15 -13.70049 33.00240 27722 ft 424 kts 279°
2026-04-29 03:16 -13.69587 32.97236 28228 ft 428 kts 274°
2026-04-29 03:16 -13.69826 32.94187 28665 ft 431 kts 255°
2026-04-29 03:16 -13.70838 32.91273 29231 ft 432 kts 249°
2026-04-29 03:16 -13.71935 32.88382 29694 ft 436 kts 248°
2026-04-29 03:17 -13.73028 32.85494 30086 ft 440 kts 249°
2026-04-29 03:17 -13.74135 32.82547 30499 ft 443 kts 249°
2026-04-29 03:17 -13.75241 32.79574 30926 ft 446 kts 249°
2026-04-29 03:17 -13.76344 32.76590 31436 ft 445 kts 249°
2026-04-29 03:18 -13.77437 32.73616 32024 ft 443 kts 249°
2026-04-29 03:18 -13.78520 32.70658 32592 ft 441 kts 249°
2026-04-29 03:18 -13.79601 32.67702 33076 ft 440 kts 249°
2026-04-29 03:18 -13.80679 32.64751 33513 ft 440 kts 249°
2026-04-29 03:19 -13.81743 32.61837 33962 ft 439 kts 249°
2026-04-29 03:19 -13.82818 32.58894 34423 ft 438 kts 249°
2026-04-29 03:19 -13.83894 32.55944 34862 ft 437 kts 249°
2026-04-29 03:19 -13.84962 32.53018 35263 ft 437 kts 249°
2026-04-29 03:20 -13.86028 32.50096 35654 ft 436 kts 249°
2026-04-29 03:20 -13.87091 32.47183 36054 ft 435 kts 249°
2026-04-29 03:20 -13.88154 32.44265 36414 ft 434 kts 249°
2026-04-29 03:20 -13.89203 32.41386 36727 ft 435 kts 249°
2026-04-29 03:21 -13.90268 32.38464 37033 ft 435 kts 249°
2026-04-29 03:21 -13.91331 32.35544 37365 ft 435 kts 249°
2026-04-29 03:21 -13.92392 32.32628 37680 ft 435 kts 249°
2026-04-29 03:21 -13.93456 32.29702 37965 ft 435 kts 249°
2026-04-29 03:22 -13.94527 32.26757 37981 ft 441 kts 249°
2026-04-29 03:22 -13.96666 32.20871 37992 ft 440 kts 249°
2026-04-29 03:23 -13.98786 32.15032 37998 ft 433 kts 249°
2026-04-29 03:23 -14.00896 32.09216 38008 ft 433 kts 249°
2026-04-29 03:24 -14.02998 32.03417 38006 ft 434 kts 249°
2026-04-29 03:24 -14.05113 31.97576 38002 ft 435 kts 249°
2026-04-29 03:25 -14.07228 31.91732 38002 ft 435 kts 249°
2026-04-29 03:25 -14.09342 31.85884 38001 ft 436 kts 249°
2026-04-29 03:26 -14.11457 31.80031 38002 ft 436 kts 249°
2026-04-29 03:26 -14.13567 31.74185 38001 ft 436 kts 249°
2026-04-29 03:27 -14.15681 31.68321 38001 ft 436 kts 249°
2026-04-29 03:27 -14.17797 31.62449 38001 ft 436 kts 249°
2026-04-29 03:28 -14.19909 31.56585 38001 ft 436 kts 249°
2026-04-29 03:28 -14.22005 31.50756 38001 ft 436 kts 249°
2026-04-29 03:29 -14.24111 31.44895 38001 ft 436 kts 249°
2026-04-29 03:29 -14.26219 31.39027 38001 ft 436 kts 249°
2026-04-29 03:30 -14.28322 31.33162 38001 ft 435 kts 249°
2026-04-29 03:30 -14.30420 31.27310 38001 ft 435 kts 249°
2026-04-29 03:31 -14.33555 31.18556 38001 ft 435 kts 250°
2026-04-29 03:31 -14.35650 31.12699 38001 ft 435 kts 250°
2026-04-29 03:32 -14.37740 31.06848 38001 ft 435 kts 250°
2026-04-29 03:32 -14.39834 31.00983 38001 ft 434 kts 250°
2026-04-29 03:33 -14.41907 30.95173 38002 ft 434 kts 250°
2026-04-29 03:33 -14.43994 30.89318 38001 ft 434 kts 250°
2026-04-29 03:34 -14.46079 30.83463 38002 ft 434 kts 250°
2026-04-29 03:34 -14.47810 30.78598 38001 ft 434 kts 250°
2026-04-29 03:35 -14.49893 30.72740 38002 ft 434 kts 250°
2026-04-29 03:35 -14.51972 30.66886 38001 ft 434 kts 250°
2026-04-29 03:36 -14.54387 30.60083 38002 ft 434 kts 250°
2026-04-29 03:36 -14.56113 30.55214 38002 ft 434 kts 250°
2026-04-29 03:37 -14.58191 30.49349 38001 ft 434 kts 250°
2026-04-29 03:37 -14.60267 30.43483 38002 ft 434 kts 250°
2026-04-29 03:38 -14.62341 30.37619 38001 ft 434 kts 250°
2026-04-29 03:38 -14.64401 30.31790 38001 ft 434 kts 250°
2026-04-29 03:39 -14.66472 30.25922 38002 ft 434 kts 250°
2026-04-29 03:39 -14.68540 30.20057 38001 ft 434 kts 250°
2026-04-29 03:40 -14.70609 30.14185 38002 ft 434 kts 250°
2026-04-29 03:40 -14.72663 30.08351 38000 ft 434 kts 250°
2026-04-29 03:41 -14.74728 30.02480 38001 ft 434 kts 250°
2026-04-29 03:41 -14.76795 29.96600 38001 ft 434 kts 250°
2026-04-29 03:42 -14.78858 29.90725 38001 ft 434 kts 250°
2026-04-29 03:42 -14.80904 29.84890 38002 ft 434 kts 250°
2026-04-29 03:43 -14.82971 29.78994 37388 ft 437 kts 250°
2026-04-29 03:43 -14.84004 29.76042 36812 ft 436 kts 250°
2026-04-29 03:43 -14.85034 29.73101 36216 ft 435 kts 250°
2026-04-29 03:44 -14.86062 29.70163 35564 ft 435 kts 250°
2026-04-29 03:44 -14.87086 29.67234 35069 ft 431 kts 250°
2026-04-29 03:44 -14.88101 29.64332 34570 ft 427 kts 250°
2026-04-29 03:44 -14.89093 29.61490 34091 ft 423 kts 250°
2026-04-29 03:45 -14.90093 29.58629 33610 ft 420 kts 250°
2026-04-29 03:45 -14.91081 29.55798 33135 ft 416 kts 250°
2026-04-29 03:45 -14.92060 29.52993 32666 ft 413 kts 250°
2026-04-29 03:45 -14.93029 29.50213 32196 ft 409 kts 250°
2026-04-29 03:46 -14.93991 29.47453 31742 ft 406 kts 250°
2026-04-29 03:46 -14.94945 29.44717 31280 ft 403 kts 250°
2026-04-29 03:46 -14.95892 29.41999 30835 ft 400 kts 250°
2026-04-29 03:46 -14.96830 29.39304 30393 ft 397 kts 250°
2026-04-29 03:47 -14.97761 29.36627 29948 ft 394 kts 250°
2026-04-29 03:47 -14.98684 29.33975 29499 ft 390 kts 250°
2026-04-29 03:47 -14.99595 29.31336 29031 ft 387 kts 251°
2026-04-29 03:47 -15.00445 29.28705 28550 ft 384 kts 252°
2026-04-29 03:48 -15.01250 29.26119 28082 ft 381 kts 252°
2026-04-29 03:48 -15.02053 29.23513 27610 ft 378 kts 252°
2026-04-29 03:48 -15.02850 29.20930 27143 ft 375 kts 252°
2026-04-29 03:48 -15.03644 29.18370 26676 ft 372 kts 252°
2026-04-29 03:49 -15.04435 29.15825 26219 ft 369 kts 252°
2026-04-29 03:49 -15.05223 29.13301 25758 ft 366 kts 252°
2026-04-29 03:49 -15.06004 29.10798 25301 ft 364 kts 252°
2026-04-29 03:49 -15.06779 29.08317 24842 ft 361 kts 252°
2026-04-29 03:50 -15.07539 29.05885 24401 ft 358 kts 252°
2026-04-29 03:50 -15.08303 29.03438 23939 ft 355 kts 252°
2026-04-29 03:50 -15.09061 29.01010 23495 ft 353 kts 252°
2026-04-29 03:50 -15.09811 28.98606 23043 ft 350 kts 252°
2026-04-29 03:51 -15.10558 28.96209 22590 ft 347 kts 252°
2026-04-29 03:51 -15.11298 28.93835 22142 ft 345 kts 252°
2026-04-29 03:51 -15.12034 28.91474 21687 ft 342 kts 252°
2026-04-29 03:51 -15.12762 28.89137 21244 ft 340 kts 252°
2026-04-29 03:52 -15.13475 28.86845 20801 ft 337 kts 252°
2026-04-29 03:52 -15.14192 28.84542 20357 ft 335 kts 252°
2026-04-29 03:52 -15.14904 28.82253 19920 ft 332 kts 252°
2026-04-29 03:52 -15.15510 28.79955 19458 ft 331 kts 263°
2026-04-29 03:53 -15.15419 28.77585 19042 ft 327 kts 276°
2026-04-29 03:53 -15.15162 28.75247 18587 ft 326 kts 276°
2026-04-29 03:53 -15.14918 28.72916 18148 ft 324 kts 276°
2026-04-29 03:53 -15.14684 28.70602 17710 ft 322 kts 275°
2026-04-29 03:54 -15.14459 28.68332 17278 ft 319 kts 275°
2026-04-29 03:54 -15.14236 28.66048 16849 ft 317 kts 275°
2026-04-29 03:54 -15.14016 28.63782 16419 ft 315 kts 275°
2026-04-29 03:54 -15.13797 28.61522 15988 ft 313 kts 275°
2026-04-29 03:55 -15.13582 28.59288 15554 ft 311 kts 275°
2026-04-29 03:55 -15.13370 28.57091 15128 ft 309 kts 275°
2026-04-29 03:55 -15.13156 28.54877 14712 ft 307 kts 275°
2026-04-29 03:55 -15.12945 28.52686 14288 ft 305 kts 275°
2026-04-29 03:56 -15.12734 28.50510 13867 ft 303 kts 275°
2026-04-29 03:56 -15.12525 28.48342 13442 ft 301 kts 275°
2026-04-29 03:56 -15.12316 28.46188 13020 ft 299 kts 275°
2026-04-29 03:56 -15.12110 28.44079 12604 ft 297 kts 276°
2026-04-29 03:57 -15.11862 28.41955 12152 ft 296 kts 277°
2026-04-29 03:57 -15.11596 28.39846 11718 ft 295 kts 277°
2026-04-29 03:57 -15.11330 28.37739 11299 ft 293 kts 277°
2026-04-29 03:57 -15.11070 28.35652 10881 ft 291 kts 277°
2026-04-29 03:58 -15.10813 28.33583 10467 ft 289 kts 277°
2026-04-29 03:58 -15.10562 28.31526 10114 ft 285 kts 275°
2026-04-29 03:58 -15.10728 28.29548 9949 ft 273 kts 250°
2026-04-29 03:58 -15.11726 28.27907 9584 ft 270 kts 224°
2026-04-29 03:59 -15.13267 28.26823 9239 ft 268 kts 204°
2026-04-29 03:59 -15.15038 28.26361 8880 ft 267 kts 187°
2026-04-29 03:59 -15.16879 28.26163 8522 ft 265 kts 186°
2026-04-29 03:59 -15.18715 28.25969 8151 ft 265 kts 186°
2026-04-29 04:00 -15.20547 28.25770 7820 ft 262 kts 186°
2026-04-29 04:00 -15.22323 28.25572 7709 ft 251 kts 186°
2026-04-29 04:00 -15.24031 28.25378 7580 ft 242 kts 187°
2026-04-29 04:00 -15.25675 28.25189 7467 ft 233 kts 187°
2026-04-29 04:01 -15.27253 28.25008 7365 ft 223 kts 187°
2026-04-29 04:01 -15.28750 28.24836 7266 ft 214 kts 186°
2026-04-29 04:01 -15.30188 28.25028 7081 ft 208 kts 151°
2026-04-29 04:01 -15.31152 28.26064 6900 ft 199 kts 115°
2026-04-29 04:02 -15.31512 28.27429 6685 ft 196 kts 97°
2026-04-29 04:02 -15.31651 28.28831 6441 ft 194 kts 96°
2026-04-29 04:02 -15.31778 28.30218 6246 ft 195 kts 96°
2026-04-29 04:02 -15.31894 28.31570 6018 ft 182 kts 96°
2026-04-29 04:03 -15.32003 28.32841 5779 ft 171 kts 96°
2026-04-29 04:03 -15.32103 28.34008 5573 ft 158 kts 96°
2026-04-29 04:03 -15.32196 28.35092 5392 ft 148 kts 96°
2026-04-29 04:03 -15.32287 28.36138 5187 ft 144 kts 96°
2026-04-29 04:04 -15.32377 28.37180 4996 ft 146 kts 96°
2026-04-29 04:04 -15.32468 28.38225 4800 ft 145 kts 96°
2026-04-29 04:04 -15.32558 28.39268 4605 ft 145 kts 96°
2026-04-29 04:04 -15.32648 28.40307 4413 ft 144 kts 96°
2026-04-29 04:05 -15.32736 28.41326 4228 ft 144 kts 96°
2026-04-29 04:05 -15.32825 28.42356 4045 ft 143 kts 96°
2026-04-29 04:05 -15.32915 28.43389 3845 ft 143 kts 96°
2026-04-29 04:05 -15.33006 28.44372 3775 ft 123 kts 95°
2026-04-29 04:06 -15.33056 28.45028 3778 ft 45 kts 95°
2026-04-29 04:06 -15.33036 28.45186 3778 ft 15 kts 36°
2026-04-29 04:06 -15.32959 28.45186 3772 ft 6 kts 340°
2026-04-29 04:06 -15.32921 28.45171 3778 ft 6 kts 339°
2026-04-29 04:07 -15.32894 28.45141 3774 ft 6 kts 302°
2026-04-29 04:07 -15.32874 28.45099 3775 ft 7 kts 296°
2026-04-29 04:07 -15.32864 28.45044 3772 ft 8 kts 274°
2026-04-29 04:07 -15.32859 28.44979 3773 ft 9 kts 276°
2026-04-29 04:08 -15.32853 28.44913 3773 ft 9 kts 276°
2026-04-29 04:08 -15.32847 28.44849 3773 ft 9 kts 274°
2026-04-29 04:08 -15.32842 28.44787 3774 ft 9 kts 275°
2026-04-29 04:08 -15.32836 28.44726 3775 ft 8 kts 275°
2026-04-29 04:09 -15.32814 28.44669 3782 ft 9 kts 315°
2026-04-29 04:09 -15.32758 28.44621 3783 ft 11 kts 320°
2026-04-29 04:09 -15.32699 28.44571 3776 ft 11 kts 321°
2026-04-29 04:09 -15.32665 28.44511 3776 ft 5 kts 275°
2026-04-29 04:10 -15.32660 28.44472 3785 ft 5 kts 285°
2026-04-29 04:10 -15.32644 28.44462 3780 ft 1 kts
2026-04-29 04:10 -15.32629 28.44464 3777 ft 3 kts
2026-04-29 04:10 -15.32618 28.44465 3783 ft 0 kts